Home > Time Zones > World Clock > Weather > Cuba > Havana > Past weeks

Flag for Cuba Weather past 2 weeks in Havana, Cuba

Now
75 °F

Clear.


Feels Like: 75 °F
Forecast: 79 / 91 °F
Wind: 2 mph from North

Location: Aeropuerto Jose Marti - Rancho-Boyeros - Habana

Current Time: Jul 28, 2014 at 5:12:04 AM

Latest Report: Jul 28, 2014 at 4:55 AM


Visibility: 6 mi

Pressure: 30.07 "Hg

Humidity: 89%

Dew point: 72 °F

Location of HavanaLocation

Historic Weather in Havana — Graph

°F

Havana temperature yesterday

Maximum temperature yesterday: 91 °F (at 2:55 PM)
Minimum temperature yesterday: 72 °F (at 4:55 AM)
Average temperature yesterday: 81 °F

Past Weeks' High & Low Weather Summary

 TemperatureHumidityPressure
High93 °F (Jul 16, 1:55 PM)94% (Jul 15, 1:55 AM)30.12 "Hg (Jul 15, 1:55 AM)
Low70 °F (Jul 13, 4:55 AM)38% (Jul 15, 3:55 PM)29.98 "Hg (Jul 15, 6:55 PM)
Average81 °F74%30.06 "Hg
* Reported Jul 13 3:55 AM — Jul 28 3:55 AM, Havana, Weather by CustomWeather, © 2014

Note: Actual official high and low records may vary slightly from our data, if they occured in-between our weather recording intervals... More about our weather records

Advertising

Havana weather history for previous 24 hours

 ConditionsComfort  
Time TempWeatherWind HumidityBarometerVisibility
3:55 AM
Jul 28
75 °FClear.2 mph89%30.07 "Hg6 mi
2:55 AM77 °FClear.2 mph89%30.07 "Hg6 mi
1:55 AM79 °FClear.2 mph84%30.09 "Hg6 mi
12:55 AM77 °FClear.3 mph89%30.12 "Hg6 mi
11:55 PM
Jul 27
79 °FClear.3 mph79%30.12 "Hg6 mi
10:55 PM79 °FClear.6 mph79%30.09 "Hg6 mi
9:55 PM81 °FClear.7 mph74%30.09 "Hg6 mi
8:55 PM82 °FPartly sunny.12 mph70%30.07 "Hg6 mi
7:55 PM84 °FPartly sunny.13 mph70%30.07 "Hg6 mi
6:55 PM86 °FPassing clouds.14 mph66%30.07 "Hg6 mi
5:55 PM90 °FPassing clouds.13 mph59%30.07 "Hg6 mi
4:55 PM90 °FScattered clouds.7 mph55%30.07 "Hg6 mi
3:55 PM91 °FScattered clouds.8 mph46%30.07 "Hg6 mi
2:55 PM91 °FScattered clouds.5 mph49%30.07 "Hg6 mi
1:55 PM90 °FScattered clouds.9 mph49%30.09 "Hg6 mi
12:55 PM90 °FScattered clouds.7 mph49%30.12 "Hg6 mi
11:55 AM86 °FScattered clouds.8 mph62%30.12 "Hg6 mi
10:55 AM84 °FScattered clouds.7 mph66%30.12 "Hg6 mi
9:55 AM82 °FPassing clouds.8 mph74%30.12 "Hg6 mi
8:55 AM79 °FClear.6 mph79%30.12 "Hg6 mi
7:55 AM72 °FClear.2 mph88%30.09 "Hg6 mi
6:55 AM72 °FClear.2 mph88%30.07 "Hg6 mi
5:55 AM72 °FClear.No wind88%30.07 "Hg6 mi
Weather by CustomWeather, © 2014

See weather overviewHow to use our weather pages